Showing default

MENUT, 55010

Orbit data source: Space-Track

MENUT, 55010 is a Spanish payload satellite in SSO that was launched on Tue, 03 Jan 2023 UTC via an FALCON 9 launch vehicle from the Air Force Eastern Test Range (AFETR). Payload-class satellites include a variety of spacecraft equipped with specific instruments for various scientific and technological missions. These include communications satellites like Starlink; space stations such as the ISS; scientific satellites like the Hubble; Earth observation satellites from companies like Planet Labs, Umbra, and HawkEye 360; GPS; miniature CubeSats for education and research; and military/defense satellites.

Loading next visibility...
Identifier
55010, 2023-001B
Orbit
SSO
Country
Flag of ESES / SPN
Related business
Manufacturer
Open Cosmos
Mission
Operational Commercial Imaging
Bus & Motor
CUBESAT 6U, Unknown motor
Mass
10 kg wet, ~10 kg dry
Launch date (UTC)
2023-01-03 (4 years ago)
Launch vehicle
FALCON 9
Launch site
Air Force Eastern Test Range (AFETR)
Object type
Payload
Rocket body
Debris
Shape & HBR
Box + 2 Pan, 1.0 m
Radar Cross Section
0.080 m², Medium (>0.1 m² and < 1m²)

Expand to show TLE details & history
Last TLE update: 16 hours ago

TLE from 16 hours ago
0 MENUT
1 55010U 23001B   26206.62968617  .00105769  00000-0  10263-2 0  9990
2 55010  97.3101 275.8816 0000973 310.8835  49.2340 15.66007519198402
Epoch: 2026-07-25T15:06Z
TLE epoch observation values (Epoch: 2026-07-25T15:06:44.885Z)
Latitude
-0.00008°
Longitude
105.85537°
Altitude
373.069 km
Speed
7.686 km/s
True Right ascension
18h 23m 31s
True Declination
0° 00' 00"
Sunlit
Object was in full shadow at epoch
Visualization orbit readout
Latitude
Unknown
Longitude
Unknown
Altitude
Unknown
Speed
Unknown
Apparent Right ascension
Unknown
Apparent Declination
Unknown
Sunlit
N/A
Visualization observer readout
Local Sidereal Time
20:20:27
Azimuth
Unknown
Elevation
Unknown
Doppler factor
Unknown
Orbital elements
Apogee altitude
367.9 km
Perigee altitude
366.587 km
Semi-major axis
6,745.38 km
Eccentricity
0.0001
Inclination
97.3101°
RAAN
275.8816°
Arg. of periapsis
310.8835°
True anomaly
49.24245°
Mean anomaly
49.234°
Eccentric anomaly
49.23822°
Mean motion
3.91772 °/min
Orbital period
91.89 mins
BSTAR
0.0010263
Loading maneuver chart data...
Computing Atmospheric mass density...

Documentation

Showing up to 5 results
|